Miscellaneous Local Product
Issued by NWS Hastings, NE

Home | Current Version | Previous Version | Graphics & Text | Print | Product List | Glossary On
Versions: 1 2 3 4 5 6 7 8 9 10 11 12 13 14 15 16 17 18 19 20 21 22 23 24 25 26 27 28 29 30 31 32 33 34 35 36 37 38 39 40 41 42 43 44 45 46 47 48 49 50
000
AXUS43 KGID 232002
MISGRI

GID CWA HOURLY WEATHER ROUNDUP
NATIONAL WEATHER SERVICE HASTINGS NE
300 PM CDT THU OCT 23 2014

NOTE: "FAIR" INDICATES FEW OR NO CLOUDS BELOW 12,000 FEET WITH NO
SIGNIFICANT WEATHER AND/OR OBSTRUCTIONS TO VISIBILITY.

...SOUTH CENTRAL NEBRASKA...

CITY           SKY/WX    TMP DP  RH WIND       PRES   REMARKS
GRAND ISLAND   SUNNY     63  55  75 S10       30.04F
HASTINGS       CLOUDY    58  54  86 S9        30.05F
KEARNEY        SUNNY     64  55  72 SE12      30.04F
ORD            SUNNY     71  46  40 SW13      29.98F
YORK           SUNNY     68  54  60 SW10      30.04F
AURORA         SUNNY     64  56  75 SW9       30.03F
LEXINGTON      PTSUNNY   69  54  57 SW12      30.03F
HOLDREGE       MOSUNNY   63  55  76 S10       30.05F
HEBRON         SUNNY     73  51  46 W5        30.03F

...NEBRASKA PANHANDLE...

CITY           SKY/WX    TMP DP  RH WIND       PRES   REMARKS
CHADRON        CLOUDY    69  34  27 SW14      29.94F
ALLIANCE       CLOUDY    68  32  26 W18G26    30.00F
SCOTTSBLUFF    PTSUNNY   74  33  22 W17G25    30.01F
SIDNEY         PTSUNNY   71  40  32 SW16      30.06F

...WESTERN AND NORTH CENTRAL NEBRASKA...

CITY           SKY/WX    TMP DP  RH WIND       PRES   REMARKS
VALENTINE      CLOUDY    73  33  23 SW13      29.94F
AINSWORTH      MOSUNNY   74  38  26 SW15      29.95F
ONEILL         SUNNY     73  39  29 SW10      29.97F
BROKEN BOW     PTSUNNY   71  48  43 SW15      30.00F
IMPERIAL       MOSUNNY   75  40  28 SW10      30.03F
NORTH PLATTE   PTSUNNY   74  40  29 SW13      30.00F
MCCOOK         MOSUNNY   74  46  36 S12       30.04F

...EASTERN NEBRASKA...

CITY           SKY/WX    TMP DP  RH WIND       PRES   REMARKS
NORFOLK        SUNNY     70  45  40 S14       30.00F
SO SIOUX CITY  SUNNY     72  48  42 S9        30.00F
TEKAMAH        SUNNY     72  47  40 S3        30.01F
COLUMBUS       SUNNY     66  52  59 S7        30.04F
ALBION         SUNNY     69  46  43 SW12      30.01F
OMAHA EPPLEY   SUNNY     70  53  54 E3        30.02F
OFFUTT AFB     SUNNY     71  55  56 VRB1      30.02F
MILLARD        SUNNY     68  51  54 W3        30.03F
LINCOLN        SUNNY     70  51  51 CALM      30.04F
NEBRASKA CITY  SUNNY     69  52  54 NW6       30.03F
BEATRICE       SUNNY     72  54  53 SW6       30.03F
FALLS CITY     SUNNY     73  55  53 VRB5      30.02F

...NORTHERN KANSAS...

CITY           SKY/WX    TMP DP  RH WIND       PRES   REMARKS
GOODLAND       SUNNY     74  47  38 S13       30.07F
HILL CITY      PTSUNNY   71  56  58 S5        30.05F
NORTON         CLEAR     68  52  56 S9        30.04F
PHILLIPSBURG   CLOUDY    61  61 100 CALM      30.05F FOG
SMITH CENTER   CLOUDY    55  55 100 W3        30.07F FOG
BELOIT         SUNNY     66  59  77 W3        30.04F
HAYS           MOSUNNY   72  57  60 S8        30.05F
RUSSELL        MOSUNNY   73  56  54 S6        30.03F
CONCORDIA      SUNNY     72  58  61 S3        30.04F
SALINA         MOSUNNY   76  58  53 E3        30.04F
TOPEKA         MOSUNNY   70  62  76 SE3       30.05F



USA.gov is the U.S. government's official web portal to all federal, state and local government web resources and services.